Home   Weather   Barnaul   Past weeks
Flag for Russia

Past Weather in Barnaul, Russia — Yesterday and Last 2 Weeks

Now
79 °F

Passing clouds.


Feels Like: 78 °F
Forecast: 86 / 65 °F
Wind: 3 mph from South

Location: Barnaul Airport

Current Time: Jun 27, 2019 at 2:02:30 pm

Latest Report: Jun 27, 2019 at 1:00 pm


Visibility: N/A

Pressure: 29.77 "Hg

Humidity: 28%

Dew Point: 43 °F

Location of BarnaulLocation

Past Weather in Barnaul — Graph

°F

Barnaul Temperature Yesterday

Maximum temperature yesterday: 73 °F (at 2:30 pm)
Minimum temperature yesterday: 55 °F (at 6:00 am)
Average temperature yesterday: 66 °F

High & Low Weather Summary for the Past Weeks

 TemperatureHumidityPressure
High81 °F (Jun 12, 5:30 pm)100% (Jun 16, 3:30 am)30.04 "Hg (Jun 16, 3:30 am)
Low46 °F (Jun 17, 4:30 am)26% (Jun 12, 5:30 pm)29.53 "Hg (Jun 16, 3:30 am)
Average62 °F65%29.81 "Hg
* Reported Jun 12 1:00 pm — Jun 27 1:00 pm, Barnaul. Weather by CustomWeather, © 2019

Note: Actual official high and low records may vary slightly from our data, if they occured in-between our weather recording intervals... More about our weather records

Advertising

Barnaul Weather History for the Previous 24 Hours

Scroll right to see more
 ConditionsComfort  
Time TempWeatherWind HumidityBarometerVisibility
1:00 pm
Thu, Jun 27
79 °FPassing clouds.3 mph28%29.77 "HgN/A
12:30 pm77 °FSunny.6 mph32%29.77 "Hg10 mi
12:00 pm77 °FSunny.6 mph32%29.77 "Hg10 mi
11:30 am75 °FPassing clouds.3 mph34%29.77 "HgN/A
11:00 am73 °FSunny.6 mph36%29.77 "Hg10 mi
10:30 am73 °FPassing clouds.3 mph47%29.77 "HgN/A
10:00 am72 °FSunny.6 mph53%29.77 "Hg10 mi
9:30 am70 °FPassing clouds.3 mph53%29.77 "HgN/A
9:00 am68 °FPassing clouds.3 mph56%29.77 "HgN/A
8:30 am66 °FSunny.6 mph56%29.77 "Hg10 mi
8:00 am64 °FSunny.6 mph64%29.77 "Hg10 mi
7:30 am63 °FSunny.6 mph68%29.80 "Hg10 mi
7:00 am61 °FSunny.3 mph72%29.80 "Hg10 mi
6:30 am59 °FSunny.3 mph72%29.80 "Hg10 mi
6:00 am59 °FSunny.6 mph68%29.80 "Hg10 mi
5:30 am57 °FSunny.3 mph67%29.80 "Hg10 mi
5:00 am57 °FSunny.6 mph67%29.80 "Hg10 mi
4:30 am57 °FClear.6 mph67%29.80 "Hg10 mi
4:00 am57 °FClear.6 mph67%29.80 "Hg10 mi
3:30 am55 °FClear.3 mph72%29.80 "Hg10 mi
3:00 am57 °FClear.6 mph67%29.80 "Hg10 mi
2:30 am57 °FClear.3 mph67%29.80 "Hg10 mi
2:00 am59 °FClear.6 mph63%29.83 "Hg10 mi
1:30 am59 °FClear.3 mph68%29.83 "Hg10 mi
1:00 am59 °FClear.6 mph68%29.83 "Hg10 mi
12:30 am61 °FClear.6 mph63%29.86 "Hg10 mi
12:00 am63 °FClear.3 mph59%29.86 "Hg10 mi
11:30 pm
Wed, Jun 26
63 °FClear.3 mph59%29.86 "Hg10 mi
11:00 pm63 °FClear.3 mph59%29.86 "Hg10 mi
10:30 pm64 °FClear.3 mph56%29.89 "Hg10 mi
10:00 pm64 °FClear.3 mph56%29.89 "Hg10 mi
9:30 pm68 °FSunny.6 mph49%29.89 "Hg10 mi
9:00 pm68 °FSunny.6 mph53%29.89 "Hg10 mi
8:30 pm70 °FSunny.8 mph46%29.89 "Hg10 mi
8:00 pm72 °FSunny.8 mph47%29.89 "Hg10 mi
7:30 pm73 °FPassing clouds.8 mph41%29.89 "HgN/A
7:00 pm73 °FPassing clouds.8 mph44%29.89 "HgN/A
6:30 pm72 °FPassing clouds.3 mph41%29.92 "HgN/A
6:00 pm73 °FPassing clouds.3 mph41%29.92 "HgN/A
5:30 pm73 °FScattered clouds.6 mph41%29.92 "HgN/A
5:00 pm73 °FScattered clouds.8 mph41%29.92 "HgN/A
4:30 pm73 °FScattered clouds.6 mph41%29.92 "HgN/A
4:00 pm73 °FScattered clouds.6 mph44%29.92 "HgN/A
3:30 pm72 °FScattered clouds.6 mph44%29.95 "HgN/A
3:00 pm73 °FPassing clouds.8 mph44%29.95 "HgN/A
2:30 pm73 °FPassing clouds.6 mph44%29.95 "HgN/A
2:00 pm72 °FPassing clouds.6 mph44%29.95 "HgN/A
Weather by CustomWeather, © 2019

See weather overview